Massape, Brazil
Current Conditions -  °F | °C
As of 2:00 PM on Friday 24 Oct 2014 (Local Time) from SBPB Reporting Station
Few Clouds Few Clouds  
Wind Chill: 91°   Ceiling: Unl
Heat Index: 102°   Visibility: 6mi
Dew Point: 75°   Wind: 18mph
Humidity: 59%   Direction: 60°ENE
Pressure: 29.77"   Gusts: NA
Location:  3.52°S, 40.34°W
Report Text: SBPB 241700Z 06016KT 9999 FEW020 33/24 Q1008
Loading
Personal Weather Stations






























Interactive Weather Map
Tropical Storm Tracking
New forecast layout! Learn more

10-Day Weather Forecast

Advertisements
Track Severe Weather on mobile